Location: Unspecified
(48.2082°N, 0.0000°E)
Time: 04:10:59
(UTC+00:00)

Altair - Pass Details

Date: 23 June 2019
Orbit: 1501 x 1683 km, 47.2° (Epoch: 12 October)

Event Time Altitude Azimuth Distance (km) Brightness Sun altitude
Rises 00:37:58 0° 286° (WNW) 4,818 10.2 -17.9°
Reaches altitude 10° 00:41:04 10° 283° (WNW) 3,854 9.6 -17.8°
Maximum altitude 00:50:47 64° 205° (SSW) 1,804 7.6 -17.5°
Drops below altitude 10° 01:00:44 10° 127° (SE) 3,939 9.4 -17.2°
Sets 01:03:57 0° 125° (SE) 4,928 10.0 -17.0°
